Regional Weather Roundup
Issued by NWS

Home | Current Version | Previous Version | Graphics & Text | Print | Product List | Glossary On
Versions: 1 2 3 4 5 6 7 8 9 10 11 12 13 14 15 16 17 18 19 20 21 22 23 24 25 26 27 28 29 30 31 32 33 34 35 36 37 38 39 40 41 42 43 44 45 46 47 48 49 50
092
ASUS43 KIND 111859
RWRIN

WEATHER ROUNDUP FOR INDIANA
NATIONAL WEATHER SERVICE INDIANAPOLIS IN
200 PM EST MON DEC 11 2017

NOTE: "FAIR" INDICATES FEW OR NO CLOUDS BELOW 12,000 FEET WITH NO
SIGNIFICANT WEATHER AND/OR OBSTRUCTIONS TO VISIBILITY.

* - STATION DOES NOT REPORT WEATHER SUCH AS PRECIPITATION OR FOG.

+ - STATION NOT QUALITY CONTROLLED BY THE NATIONAL WEATHER SERVICE.
    USE DATA WITH CAUTION...ESPECIALLY DEWPOINT AND RELATIVE
    HUMIDITY OBSERVATIONS.

INZ001>003-010>013-019-020-112000-
NORTHWEST INDIANA

CITY           SKY/WX    TMP DP  RH WIND       PRES   REMARKS
GARY /AIRPORT/ PTSUNNY   37  25  60 S9        29.74F WCI  31
MONTICELLO +   MOSUNNY   40  25  54 S7        29.75F WCI  35

$$

LMZ046-743>745-112000-
SOUTHERN LAKE MICHIGAN

STATION/POSITION TIME  TEMP    WIND        PRES    WAVE
                       AIR SEA DIR/SP/G            HT
                 (UTC) (F)     (DEG/KT/KT) (MB)    (FT)
BURNS HARBOR     1840   35     160/ 11/ 19 1007.5F
MICHIGAN CITY    1830   32     130/ 13/ 15   N/A

$$

INZ004-005-014>016-021>024-112000-
NORTH CENTRAL INDIANA

CITY           SKY/WX    TMP DP  RH WIND       PRES   REMARKS
ELKHART        MOSUNNY   32  23  69 S7        29.79F WCI  26
GOSHEN         CLOUDY    32  24  72 S8        29.79F WCI  25
PERU/GRISSOM   CLOUDY    37  28  69 SE12      29.76F WCI  30
SOUTH BEND     CLOUDY    30  24  78 SE10      29.77F WCI  21

$$

INZ006>009-017-018-025>027-112000-
NORTHEAST INDIANA

CITY           SKY/WX    TMP DP  RH WIND       PRES   REMARKS
FORT WAYNE     CLOUDY    34  27  75 S9        29.82F WCI  27
KENDALLVILLE + CLOUDY    32  24  74 S9        29.81F WCI  24

$$

INZ028-029-035-036-043>045-051>053-112000-
WEST CENTRAL INDIANA

CITY           SKY/WX    TMP DP  RH WIND       PRES   REMARKS
LAFAYETTE      MOSUNNY   44  27  51 S7        29.73F
TERRE HAUTE    SUNNY     48  28  46 S22G29    29.72F

$$

INZ030>032-037>040-046>048-054>057-064-065-112000-
CENTRAL INDIANA

CITY           SKY/WX    TMP DP  RH WIND       PRES   REMARKS
ANDERSON       SUNNY     39  27  60 MISG      29.80F
COLUMBUS       SUNNY     43  25  49 S14G25    29.83F
INDIANAPOLIS   PTSUNNY   44  27  51 S16       29.77F
-EAGLE CREEK   SUNNY     43  26  51 S10       29.76F
KOKOMO +       PTSUNNY   36  27  69 SE12      29.79F WCI  28
MT COMFORT *+  MOSUNNY   41  32  70 S9        29.79F
SHELBYVILLE    SUNNY     43  26  51 S17       29.80F

$$

INZ033-034-041-042-049-050-058-059-112000-
EAST CENTRAL INDIANA

CITY           SKY/WX    TMP DP  RH WIND       PRES   REMARKS
MUNCIE         CLOUDY    39  26  59 S10       29.80F WCI  32
RICHMOND +     CLOUDY    36  28  75 S10       29.85F WCI  28

$$

INZ060-061-067>069-081>083-085>088-112000-
SOUTHWEST INDIANA

CITY           SKY/WX    TMP DP  RH WIND       PRES   REMARKS
EVANSVILLE     MOSUNNY   54  31  41 S18G30    29.81F
HUNTINGBURG +  MOSUNNY   51  32  48 S18G26    29.82F

$$

INZ062-063-066-070>080-084-089>092-112000-
SOUTH CENTRAL AND SOUTHEAST INDIANA

CITY           SKY/WX    TMP DP  RH WIND       PRES   REMARKS
BLOOMINGTON    MOSUNNY   47  27  45 S14       29.78F
MADISON *+     SUNNY     45  28  53 S15       29.86F
SEYMOUR +      MOSUNNY   48  28  46 S9        29.83F

$$





USA.gov is the U.S. government's official web portal to all federal, state and local government web resources and services.